Regional Weather Roundup
Issued by NWS

Home | Current Version | Previous Version | Graphics & Text | Print | Product List | Glossary Off
Versions: 1 2 3 4 5 6 7 8 9 10 11 12 13 14 15 16 17 18 19 20 21 22 23 24 25 26 27 28 29 30 31 32 33 34 35 36 37 38 39 40 41 42 43 44 45 46 47 48 49 50

247
ASUS43 KTOP 270459
RWRKS

WEATHER ROUNDUP FOR KANSAS
NATIONAL WEATHER SERVICE GOODLAND KS
1200 AM CDT TUE JUN 27 2017

NOTE:  "FAIR" INDICATES FEW OR NO CLOUDS BELOW 12,000 FEET WITH NO
SIGNIFICANT WEATHER AND/OR OBSTRUCTIONS TO VISIBILITY.

KSZ001>006-013>018-027>032-041>047-270600-
NORTHWEST KANSAS

CITY           SKY/WX    TMP DP  RH WIND       PRES   REMARKS
GOODLAND       CLEAR     65  62  90 E13       30.12S
HAYS           CLEAR     66  61  84 E8        30.11R
HILL CITY      CLEAR     65  59  81 E9        30.12R
RUSSELL        CLEAR     65  61  87 E13       30.10R
$$

KSZ061>065-074>080-084>089-270600-
SOUTHWEST KANSAS

CITY           SKY/WX    TMP DP  RH WIND       PRES   REMARKS
DODGE CITY     PTCLDY    68  62  81 NE6       30.08R
ELKHART          N/A     69  51  52 S8          N/A
GARDEN CITY    PTCLDY    69  62  78 E14       30.09R
GREAT BEND     CLEAR     67  60  78 E9        30.10R
LIBERAL        CLOUDY    73  62  68 S7        30.08R
$$

KSZ066>073-081>083-090>101-270600-
SOUTHEAST KANSAS

CITY           SKY/WX    TMP DP  RH WIND       PRES   REMARKS
CHANUTE        PTCLDY    64  62  93 E7        30.10F
COFFEYVILLE    CLOUDY    69  65  86 E13       30.09R
HUTCHINSON     PTCLDY    67  62  84 SE10      30.08R
MEDICINE LODGE   N/A     75  60  59 S6        30.04R
NEWTON         PTCLDY    64  62  93 E8        30.10R
PARSONS        LGT RAIN  66  62  87 VRB5      30.10F
WICHITA INTL   MOCLDY    68  65  90 E9        30.07R
WICHITA JABRA  PTCLDY    64  63  96 E5        30.08S
WINFIELD       PTCLDY    67  65  93 E6        30.08S
$$

KSZ007>012-019>026-033>040-048>060-102>105-270600-
NORTHEAST KANSAS

CITY           SKY/WX    TMP DP  RH WIND       PRES   REMARKS
CONCORDIA      CLEAR     61  60  97 SE5       30.13R
EMPORIA        PTCLDY    62  61  96 E7        30.12R
LAWRENCE       PTCLDY    58  58 100 NE7       30.13S
MANHATTAN      CLEAR     63  60  90 CALM      30.12R
OLATHE IND     CLEAR     61  56  83 SE7       30.13S
OLATHE EXE     CLEAR     59  58  96 NE5       30.14R
SALINA         MOCLDY    68  61  78 E9        30.11R
TOPEKA BILLARD CLEAR     61  61 100 NE3       30.13R
TOPEKA FORBES  CLEAR     62  60  93 E3        30.12S
$$




USA.gov is the U.S. government's official web portal to all federal, state and local government web resources and services.